Weather in Yb

Russia / Komi Republic     61°16′23″N   50°34′35″E
temp.,
°C
wind,
m/s
gust,
m/s
humid.,
%
clouds,
%
prec.,
mm/h
press.,
hPa
HPBL,
m
27 january, thu
thu2700:00−13ssw149795 0.1 101494
03:00−15ssw1198100 0.3 101431
06:00−15ssw139882 0.1 101364
09:00−16sw139871 0.2 101389
12:00−14sw239695 0.1 1014157
15:00−17ssw1110077 0.1 101510
18:00−19ssw2610072 0.0 101697
21:00−18s2799100 0.0 1015131
28 january, fri
fri2800:00−16s2797100 0.0 1015180
03:00−16s3896100 0.0 1016187
06:00−16s3996100 0.0 1016224
09:00−16s3995100 0.0 1016266
12:00−14s3894100 0.0 1016311
15:00−14sse3994100 0.0 1016306
18:00−14sse31094100 0.0 1016312
21:00−14sse31095100 0.0 1016298
29 january, sat
sat2900:00−14s3119595 0.0 1015310
03:00−12sse31195100 0.1 1015328
06:00−8s41293100 0.1 1014472
09:00−8sse41293100 0.1 1014457
12:00−6sse4129393 0.1 1012567
15:00−7sse41192100 0.2 1011611
18:00−7sse41093100 0.1 1010464
21:00−9sse31094100 0.2 1008363
30 january, sun
sun3000:00−9sse3995100 0.1 1007359
03:00−9sse3895100 0.3 1005355
06:00−9sse389584 0.2 1003333
09:00−11se3995100 0.2 1003302
12:00−8sse3794100 0.1 1003417
15:00−9se369492 0.1 1003291
18:00−12ese299767 0.0 1003176
21:00−15ese259864 0.1 100382
31 january, mon
mon3100:00−16e269839 0.0 100384
03:00−16e269875 0.0 100396
06:00−13e279771 0.1 1003152
09:00−11ese389699 0.2 1003209
12:00−8ese2795100 0.0 1004274
15:00−7ese3993100 0.0 1003403
18:00−6ese41094100 0.2 1003520
21:00−6ese3995100 0.7 1002490